| time (UTC) | temp F | wind direction | speed knots | gust knots | rain 1hr in | rain 24hr in | rain mn in | humidity % | barometer mb |
| 20260506211634 | 65 | 164 | 0.0 | 0.0 | 0.00 | 0.17 | 0.17 | 86 | 1006.4 |
| 20260506211515 | 64 | 180 | 1.7 | 1.7 | 0.00 | 0.22 | 0.22 | 92 | 1004.8 |
| 20260506211414 | 65 | 164 | 0.0 | 0.0 | 0.00 | 0.17 | 0.17 | 86 | 1006.3 |
| 20260506211013 | 64 | 169 | 1.7 | 2.6 | 0.00 | 0.22 | 0.22 | 92 | 1004.9 |
| 20260506210635 | 65 | 178 | 0.0 | 0.0 | 0.00 | 0.17 | 0.17 | 85 | 1006.4 |
| 20260506210509 | 65 | 203 | 0.0 | 1.7 | 0.00 | 0.22 | 0.22 | 92 | 1004.8 |
| 20260506210135 | 65 | 178 | 0.0 | 0.0 | 0.00 | 0.17 | 0.17 | 85 | 1006.4 |
| 20260506210006 | 65 | 228 | 1.7 | 2.6 | 0.00 | 0.22 | 0.22 | 91 | 1004.7 |
| 20260506205632 | 65 | 171 | 0.0 | 0.0 | 0.00 | 0.17 | 0.17 | 85 | 1006.3 |
| 20260506205502 | 65 | 180 | 0.0 | 2.6 | 0.00 | 0.22 | 0.22 | 91 | 1004.8 |
| 20260506205131 | 65 | 169 | 0.0 | 0.0 | 0.00 | 0.17 | 0.17 | 85 | 1006.3 |
| 20260506204957 | 65 | 173 | 0.9 | 2.6 | 0.00 | 0.22 | 0.22 | 90 | 1004.7 |
| 20260506204630 | 65 | 190 | 0.0 | 0.0 | 0.00 | 0.17 | 0.17 | 84 | 1006.3 |
| 20260506204456 | 65 | 221 | 1.7 | 3.5 | 0.00 | 0.22 | 0.22 | 90 | 1004.8 |
| 20260506204419 | 65 | 194 | 0.0 | 0.0 | 0.00 | 0.17 | 0.17 | 84 | 1006.2 |
| 20260506203953 | 65 | 203 | 1.7 | 3.5 | 0.00 | 0.22 | 0.22 | 89 | 1004.7 |
| 20260506203630 | 65 | 184 | 0.0 | 0.0 | 0.00 | 0.17 | 0.17 | 84 | 1006.3 |
| 20260506203450 | 65 | 201 | 2.6 | 3.5 | 0.00 | 0.22 | 0.22 | 90 | 1004.9 |
| 20260506203130 | 65 | 184 | 0.0 | 0.0 | 0.00 | 0.17 | 0.17 | 84 | 1006.3 |
| 20260506202947 | 65 | 212 | 2.6 | 5.2 | 0.00 | 0.22 | 0.22 | 90 | 1004.9 |
| 20260506202631 | 65 | 180 | 0.0 | 0.0 | 0.00 | 0.17 | 0.17 | 85 | 1006.3 |
| 20260506202444 | 65 | 177 | 1.7 | 3.5 | 0.00 | 0.22 | 0.22 | 90 | 1004.7 |
| 20260506202125 | 65 | 188 | 0.0 | 0.0 | 0.00 | 0.17 | 0.17 | 86 | 1006.1 |
| 20260506201940 | 65 | 212 | 2.6 | 3.5 | 0.00 | 0.22 | 0.22 | 91 | 1004.5 |
| 20260506201623 | 64 | 173 | 0.0 | 0.0 | 0.00 | 0.17 | 0.17 | 87 | 1006.1 |
| 20260506201438 | 64 | 251 | 0.0 | 1.7 | 0.00 | 0.22 | 0.22 | 93 | 1004.6 |
| 20260506201403 | 64 | 177 | 0.0 | 0.0 | 0.00 | 0.17 | 0.17 | 87 | 1006.1 |
| 20260506200934 | 64 | 198 | 0.9 | 1.7 | 0.00 | 0.22 | 0.22 | 93 | 1004.5 |
| 20260506200620 | 64 | 180 | 0.0 | 0.0 | 0.00 | 0.17 | 0.17 | 87 | 1006.1 |
| 20260506200431 | 63 | 180 | 0.0 | 1.7 | 0.00 | 0.22 | 0.22 | 94 | 1004.8 |
| 20260506200119 | 64 | 159 | 0.0 | 0.0 | 0.00 | 0.17 | 0.17 | 87 | 1006.2 |
| 20260506195927 | 63 | 203 | 1.7 | 2.6 | 0.00 | 0.22 | 0.22 | 93 | 1004.7 |
| 20260506195858 | 64 | 169 | 0.0 | 0.0 | 0.00 | 0.17 | 0.17 | 88 | 1006.2 |
| 20260506195424 | 63 | 208 | 1.7 | 3.5 | 0.00 | 0.22 | 0.22 | 93 | 1004.6 |
| 20260506195115 | 63 | 221 | 0.0 | 0.0 | 0.00 | 0.17 | 0.17 | 87 | 1006.3 |
| 20260506194921 | 63 | 180 | 1.7 | 3.5 | 0.00 | 0.22 | 0.22 | 94 | 1004.8 |
| 20260506194614 | 63 | 199 | 0.0 | 0.0 | 0.00 | 0.17 | 0.17 | 88 | 1006.4 |
| 20260506194418 | 63 | 180 | 0.9 | 2.6 | 0.00 | 0.22 | 0.22 | 94 | 1004.8 |
| 20260506194115 | 63 | 194 | 0.0 | 0.0 | 0.00 | 0.17 | 0.17 | 88 | 1006.5 |
| 20260506193915 | 63 | 323 | 1.7 | 2.6 | 0.00 | 0.22 | 0.22 | 94 | 1005.1 |
| 20260506193602 | 63 | 202 | 0.0 | 0.0 | 0.00 | 0.17 | 0.17 | 88 | 1006.6 |
| 20260506193412 | 63 | 307 | 2.6 | 2.6 | 0.00 | 0.22 | 0.22 | 94 | 1005.1 |
| 20260506193102 | 63 | 192 | 0.0 | 0.0 | 0.00 | 0.17 | 0.17 | 88 | 1006.6 |
| 20260506192908 | 63 | 220 | 2.6 | 3.5 | 0.00 | 0.22 | 0.22 | 94 | 1004.9 |
| 20260506192602 | 63 | 178 | 0.0 | 0.0 | 0.00 | 0.17 | 0.17 | 89 | 1006.5 |
| 20260506192406 | 63 | 191 | 1.7 | 2.6 | 0.00 | 0.22 | 0.22 | 94 | 1004.9 |
| 20260506192101 | 63 | 189 | 0.0 | 0.0 | 0.00 | 0.17 | 0.17 | 89 | 1006.5 |
| 20260506191939 | 62 | 202 | 0.0 | 0.0 | 0.00 | 0.17 | 0.17 | 91 | 1006.5 |
| 20260506191902 | 62 | 180 | 2.6 | 5.2 | 0.00 | 0.22 | 0.22 | 95 | 1004.8 |
| 20260506191629 | 62 | 157 | 0.0 | 0.0 | 0.00 | 0.17 | 0.17 | 90 | 1006.5 |
| 20260506191359 | 63 | 180 | 0.0 | 4.3 | 0.00 | 0.22 | 0.22 | 95 | 1005.0 |
| 20260506190856 | 62 | 254 | 0.9 | 2.6 | 0.00 | 0.22 | 0.22 | 96 | 1005.1 |
| 20260506190604 | 62 | 164 | 0.0 | 0.0 | 0.00 | 0.17 | 0.17 | 90 | 1006.7 |
| 20260506190352 | 61 | 166 | 2.6 | 4.3 | 0.00 | 0.22 | 0.22 | 96 | 1005.2 |
| 20260506190108 | 61 | 169 | 0.0 | 0.0 | 0.00 | 0.17 | 0.17 | 91 | 1006.7 |
| 20260506185849 | 61 | 182 | 0.0 | 0.0 | 0.00 | 0.17 | 0.17 | 91 | 1006.7 |
| 20260506185346 | 61 | 162 | 1.7 | 2.6 | 0.00 | 0.22 | 0.22 | 96 | 1005.3 |
| 20260506185054 | 61 | 186 | 0.0 | 0.0 | 0.00 | 0.17 | 0.17 | 91 | 1006.7 |
| 20260506184848 | 61 | 209 | 0.0 | 0.0 | 0.00 | 0.17 | 0.17 | 91 | 1006.8 |
| 20260506184843 | 61 | 236 | 3.5 | 5.2 | 0.00 | 0.22 | 0.22 | 96 | 1005.2 |
| 20260506184340 | 61 | 211 | 2.6 | 3.5 | 0.00 | 0.22 | 0.22 | 97 | 1005.3 |
| 20260506184053 | 61 | 180 | 0.0 | 0.0 | 0.00 | 0.17 | 0.17 | 91 | 1006.8 |
| 20260506183838 | 60 | 180 | 0.9 | 1.7 | 0.00 | 0.22 | 0.22 | 97 | 1005.3 |
| 20260506183554 | 60 | 201 | 0.0 | 0.0 | 0.00 | 0.17 | 0.17 | 91 | 1006.9 |
| 20260506183333 | 60 | 196 | 1.7 | 2.6 | 0.00 | 0.22 | 0.22 | 97 | 1005.5 |
| 20260506183053 | 60 | 170 | 0.0 | 0.0 | 0.00 | 0.17 | 0.17 | 92 | 1007.0 |
| 20260506182830 | 60 | 180 | 1.7 | 3.5 | 0.00 | 0.22 | 0.22 | 97 | 1005.5 |
| 20260506182543 | 60 | 173 | 0.0 | 0.0 | 0.00 | 0.17 | 0.17 | 92 | 1007.0 |
| 20260506182327 | 60 | 175 | 0.9 | 3.5 | 0.00 | 0.22 | 0.22 | 97 | 1005.6 |
| 20260506182043 | 60 | 159 | 0.0 | 0.0 | 0.00 | 0.17 | 0.17 | 92 | 1007.2 |
| 20260506181831 | 60 | 186 | 0.0 | 0.0 | 0.00 | 0.17 | 0.17 | 91 | 1007.3 |
| 20260506181825 | 60 | 168 | 0.9 | 3.5 | 0.00 | 0.22 | 0.22 | 97 | 1005.9 |
| 20260506181325 | 60 | 194 | 0.0 | 0.0 | 0.00 | 0.17 | 0.17 | 91 | 1007.3 |
| 20260506181323 | 60 | 185 | 0.9 | 3.5 | 0.00 | 0.22 | 0.22 | 97 | 1005.7 |
| 20260506180819 | 60 | 233 | 2.6 | 4.3 | 0.00 | 0.22 | 0.22 | 97 | 1006.0 |
| 20260506180553 | 60 | 192 | 0.0 | 0.0 | 0.00 | 0.17 | 0.17 | 91 | 1007.4 |
| 20260506180315 | 60 | 184 | 1.7 | 5.2 | 0.00 | 0.22 | 0.22 | 98 | 1006.0 |
| 20260506180038 | 60 | 175 | 0.0 | 0.0 | 0.00 | 0.17 | 0.17 | 92 | 1007.4 |
| 20260506175825 | 60 | 185 | 0.0 | 0.0 | 0.00 | 0.17 | 0.17 | 92 | 1007.3 |
| 20260506175812 | 60 | 245 | 1.7 | 4.3 | 0.00 | 0.22 | 0.22 | 98 | 1006.0 |
| 20260506175309 | 60 | 216 | 1.7 | 3.5 | 0.00 | 0.22 | 0.22 | 98 | 1005.9 |
| 20260506175038 | 60 | 204 | 0.0 | 0.0 | 0.00 | 0.17 | 0.17 | 92 | 1007.3 |
| 20260506174806 | 59 | 225 | 2.6 | 5.2 | 0.00 | 0.22 | 0.22 | 99 | 1005.7 |
| 20260506174537 | 60 | 171 | 0.0 | 0.0 | 0.00 | 0.17 | 0.17 | 92 | 1007.3 |
| 20260506174303 | 59 | 180 | 0.9 | 2.6 | 0.00 | 0.22 | 0.22 | 99 | 1005.6 |
| 20260506174026 | 60 | 181 | 0.0 | 0.0 | 0.00 | 0.17 | 0.17 | 92 | 1007.3 |
| 20260506173801 | 59 | 183 | 2.6 | 3.5 | 0.00 | 0.22 | 0.22 | 99 | 1005.5 |
| 20260506173513 | 60 | 179 | 0.0 | 0.0 | 0.00 | 0.17 | 0.17 | 92 | 1007.3 |
| 20260506173257 | 59 | 180 | 0.9 | 3.5 | 0.00 | 0.22 | 0.22 | 99 | 1005.9 |
| 20260506173004 | 60 | 192 | 0.0 | 0.0 | 0.00 | 0.17 | 0.17 | 92 | 1007.3 |
| 20260506172754 | 59 | 192 | 1.7 | 5.2 | 0.00 | 0.22 | 0.22 | 99 | 1005.6 |
| 20260506172453 | 60 | 234 | 0.0 | 0.0 | 0.00 | 0.17 | 0.17 | 92 | 1007.3 |
| 20260506172251 | 59 | 103 | 1.7 | 3.5 | 0.00 | 0.22 | 0.22 | 99 | 1006.0 |
| 20260506171941 | 60 | 172 | 0.0 | 0.0 | 0.01 | 0.17 | 0.17 | 92 | 1007.4 |
| 20260506171749 | 59 | 189 | 3.5 | 4.3 | 0.00 | 0.22 | 0.22 | 99 | 1005.9 |
| 20260506171441 | 60 | 178 | 0.0 | 0.0 | 0.01 | 0.17 | 0.17 | 92 | 1007.3 |
| 20260506171245 | 59 | 220 | 1.7 | 4.3 | 0.00 | 0.22 | 0.22 | 99 | 1005.7 |
| 20260506170941 | 60 | 194 | 0.0 | 0.0 | 0.01 | 0.17 | 0.17 | 92 | 1007.3 |
| 20260506170743 | 59 | 161 | 2.6 | 4.3 | 0.00 | 0.22 | 0.22 | 99 | 1005.7 |
| 20260506170452 | 60 | 201 | 0.0 | 0.0 | 0.01 | 0.17 | 0.17 | 92 | 1007.2 |
| 20260506170239 | 59 | 146 | 1.7 | 4.3 | 0.00 | 0.22 | 0.22 | 99 | 1005.8 |
| 20260506170222 | 60 | 134 | 0.0 | 0.0 | 0.01 | 0.17 | 0.17 | 92 | 1007.3 |
| 20260506165738 | 59 | 192 | 1.7 | 3.5 | 0.00 | 0.22 | 0.22 | 99 | 1005.9 |
| 20260506165435 | 59 | 174 | 0.0 | 0.0 | 0.02 | 0.17 | 0.17 | 92 | 1007.4 |
| 20260506165235 | 59 | 194 | 3.5 | 4.3 | 0.00 | 0.22 | 0.22 | 99 | 1006.0 |
| 20260506164935 | 59 | 185 | 0.0 | 0.0 | 0.02 | 0.17 | 0.17 | 92 | 1007.5 |
| 20260506164732 | 59 | 160 | 4.3 | 4.3 | 0.00 | 0.22 | 0.22 | 99 | 1006.1 |
| 20260506164434 | 59 | 171 | 0.0 | 0.0 | 0.03 | 0.17 | 0.17 | 93 | 1007.4 |
| 20260506164229 | 59 | 168 | 2.6 | 5.2 | 0.00 | 0.22 | 0.22 | 99 | 1006.1 |
| 20260506163931 | 60 | 165 | 0.0 | 0.0 | 0.04 | 0.17 | 0.17 | 93 | 1007.5 |
| 20260506163726 | 59 | 154 | 3.5 | 4.3 | 0.00 | 0.22 | 0.22 | 99 | 1006.0 |
| 20260506163427 | 59 | 146 | 0.0 | 0.0 | 0.05 | 0.17 | 0.17 | 93 | 1007.4 |
| 20260506163220 | 59 | 194 | 4.3 | 4.3 | 0.00 | 0.22 | 0.22 | 99 | 1006.0 |
| 20260506162928 | 59 | 165 | 0.0 | 0.0 | 0.06 | 0.17 | 0.17 | 93 | 1007.5 |
| 20260506162717 | 59 | 196 | 2.6 | 7.0 | 0.00 | 0.22 | 0.22 | 99 | 1006.2 |
| 20260506162712 | 60 | 163 | 0.0 | 0.0 | 0.07 | 0.17 | 0.17 | 93 | 1007.6 |
| 20260506162215 | 59 | 203 | 0.0 | 2.6 | 0.00 | 0.22 | 0.22 | 99 | 1006.2 |
| 20260506162208 | 59 | 178 | 0.0 | 0.0 | 0.06 | 0.16 | 0.16 | 93 | 1007.5 |
| 20260506161712 | 59 | 168 | 3.5 | 5.2 | 0.05 | 0.22 | 0.22 | 99 | 1006.0 |
| 20260506161425 | 60 | 152 | 0.0 | 0.0 | 0.07 | 0.16 | 0.16 | 93 | 1007.5 |
| 20260506161209 | 59 | 180 | 1.7 | 5.2 | 0.05 | 0.22 | 0.22 | 99 | 1006.2 |
| 20260506160926 | 59 | 155 | 0.0 | 0.0 | 0.07 | 0.16 | 0.16 | 93 | 1007.6 |
| 20260506160706 | 59 | 157 | 0.0 | 0.0 | 0.08 | 0.16 | 0.16 | 93 | 1007.3 |
| 20260506160203 | 59 | 132 | 1.7 | 5.2 | 0.07 | 0.21 | 0.21 | 99 | 1006.0 |
| 20260506160152 | 59 | 166 | 0.0 | 0.0 | 0.08 | 0.16 | 0.16 | 93 | 1007.4 |
| 20260506155701 | 59 | 176 | 3.5 | 6.1 | 0.07 | 0.21 | 0.21 | 99 | 1005.9 |
| 20260506155400 | 59 | 123 | 0.0 | 0.0 | 0.07 | 0.15 | 0.15 | 93 | 1007.7 |
| 20260506155158 | 59 | 166 | 3.5 | 6.1 | 0.12 | 0.20 | 0.20 | 99 | 1006.7 |
| 20260506154854 | 59 | 135 | 0.0 | 0.0 | 0.08 | 0.15 | 0.15 | 93 | 1008.0 |
| 20260506154346 | 59 | 137 | 0.0 | 0.0 | 0.08 | 0.14 | 0.14 | 93 | 1008.3 |
| 20260506154125 | 59 | 143 | 0.0 | 0.0 | 0.08 | 0.13 | 0.13 | 93 | 1008.4 |
| 20260506153342 | 59 | 123 | 0.0 | 0.0 | 0.07 | 0.12 | 0.12 | 92 | 1008.4 |
| 20260506153300 | 59 | 180 | 0.0 | 3.5 | 0.12 | 0.16 | 0.16 | 99 | 1007.2 |
| 20260506152841 | 59 | 145 | 0.0 | 0.0 | 0.06 | 0.11 | 0.11 | 92 | 1008.5 |
| 20260506152757 | 59 | 129 | 2.6 | 3.5 | 0.05 | 0.14 | 0.14 | 99 | 1007.1 |
| 20260506152337 | 59 | 150 | 0.0 | 0.0 | 0.06 | 0.10 | 0.10 | 92 | 1008.6 |
| 20260506152254 | 59 | 141 | 2.6 | 3.5 | 0.12 | 0.14 | 0.14 | 99 | 1007.1 |
| 20260506151836 | 59 | 145 | 0.0 | 0.0 | 0.05 | 0.09 | 0.10 | 92 | 1008.6 |
| 20260506151753 | 59 | 163 | 1.7 | 4.3 | 0.07 | 0.13 | 0.13 | 99 | 1007.4 |
| 20260506151333 | 59 | 167 | 0.0 | 0.0 | 0.05 | 0.09 | 0.09 | 92 | 1008.7 |
| 20260506151249 | 59 | 174 | 0.9 | 2.6 | 0.07 | 0.12 | 0.12 | 99 | 1007.2 |
| 20260506150831 | 59 | 181 | 0.0 | 0.0 | 0.06 | 0.09 | 0.09 | 92 | 1008.6 |
| 20260506150746 | 59 | 60 | 0.0 | 0.9 | 0.07 | 0.12 | 0.12 | 99 | 1007.2 |
| 20260506150330 | 59 | 183 | 0.0 | 0.0 | 0.05 | 0.08 | 0.08 | 91 | 1008.5 |
| 20260506150243 | 59 | 154 | 2.6 | 2.6 | 0.05 | 0.11 | 0.11 | 99 | 1007.3 |
| 20260506145821 | 59 | 187 | 0.0 | 0.0 | 0.06 | 0.08 | 0.08 | 91 | 1008.5 |
| 20260506145740 | 59 | 180 | 0.9 | 2.6 | 0.12 | 0.11 | 0.11 | 99 | 1007.0 |
| 20260506145312 | 60 | 159 | 0.0 | 0.0 | 0.07 | 0.08 | 0.08 | 91 | 1008.3 |
| 20260506145236 | 59 | 152 | 1.7 | 3.5 | 0.12 | 0.10 | 0.10 | 99 | 1006.9 |
| 20260506144810 | 60 | 151 | 0.0 | 0.0 | 0.07 | 0.07 | 0.07 | 91 | 1008.3 |
| 20260506144734 | 59 | 173 | 1.7 | 4.3 | 0.05 | 0.09 | 0.09 | 99 | 1006.9 |
| 20260506144307 | 60 | 151 | 0.0 | 0.0 | 0.06 | 0.06 | 0.06 | 91 | 1008.3 |
| 20260506144231 | 59 | 161 | 2.6 | 3.5 | 0.07 | 0.08 | 0.08 | 98 | 1007.0 |
| 20260506143806 | 60 | 148 | 0.0 | 0.0 | 0.05 | 0.05 | 0.05 | 91 | 1008.4 |
| 20260506143728 | 59 | 166 | 1.7 | 3.5 | 0.05 | 0.07 | 0.07 | 98 | 1007.1 |
| 20260506143548 | 60 | 156 | 0.0 | 0.0 | 0.05 | 0.05 | 0.05 | 91 | 1008.5 |
| 20260506143225 | 59 | 192 | 0.0 | 2.6 | 0.05 | 0.07 | 0.07 | 98 | 1007.2 |
| 20260506142803 | 60 | 154 | 0.0 | 0.0 | 0.05 | 0.05 | 0.05 | 90 | 1008.4 |
| 20260506142724 | 59 | 166 | 0.0 | 2.6 | 0.00 | 0.06 | 0.06 | 98 | 1007.2 |
| 20260506142305 | 60 | 153 | 0.0 | 0.0 | 0.04 | 0.04 | 0.04 | 90 | 1008.5 |
| 20260506142222 | 60 | 180 | 0.9 | 2.6 | 0.07 | 0.06 | 0.06 | 98 | 1007.3 |
| 20260506141802 | 60 | 184 | 0.0 | 0.0 | 0.04 | 0.04 | 0.04 | 90 | 1008.5 |
| 20260506141719 | 60 | 169 | 1.7 | 2.6 | 0.05 | 0.05 | 0.05 | 97 | 1007.2 |
| 20260506141534 | 60 | 170 | 0.0 | 0.0 | 0.03 | 0.03 | 0.04 | 89 | 1008.4 |
| 20260506141217 | 60 | 131 | 2.6 | 3.5 | 0.05 | 0.05 | 0.05 | 97 | 1007.0 |
| 20260506140734 | 60 | 166 | 0.0 | 0.0 | 0.03 | 0.03 | 0.03 | 89 | 1008.4 |
| 20260506140715 | 60 | 166 | 0.0 | 2.6 | 0.07 | 0.04 | 0.04 | 96 | 1007.1 |
| 20260506140501 | 60 | 166 | 0.0 | 0.0 | 0.02 | 0.02 | 0.02 | 88 | 1008.4 |
| 20260506140212 | 60 | 180 | 0.0 | 3.5 | 0.12 | 0.04 | 0.04 | 95 | 1007.0 |
| 20260506135723 | 61 | 155 | 0.0 | 0.0 | 0.02 | 0.02 | 0.02 | 87 | 1008.3 |
| 20260506135708 | 60 | 96 | 0.9 | 3.5 | 0.12 | 0.03 | 0.03 | 94 | 1006.8 |
| 20260506135222 | 61 | 155 | 0.0 | 0.0 | 0.01 | 0.01 | 0.01 | 86 | 1008.5 |
| 20260506135205 | 61 | 154 | 0.9 | 3.5 | 0.07 | 0.02 | 0.02 | 93 | 1007.3 |
| 20260506134803 | 61 | 164 | 0.0 | 0.0 | 0.00 | 0.00 | 0.00 | 85 | 1008.3 |
| 20260506134750 | 61 | 140 | 0.0 | 0.0 | 0.00 | 0.00 | 0.00 | 86 | 1008.4 |
| 20260506134701 | 61 | 120 | 2.6 | 2.6 | 0.05 | 0.01 | 0.01 | 92 | 1007.0 |
| 20260506134157 | 61 | 180 | 1.7 | 3.5 | 0.05 | 0.01 | 0.01 | 91 | 1007.0 |
| 20260506134011 | 62 | 159 | 0.0 | 0.0 | 0.00 | 0.00 | 0.00 | 84 | 1008.3 |
| 20260506133655 | 62 | 184 | 1.7 | 3.5 | 0.00 | 0.00 | 0.00 | 90 | 1007.0 |
| 20260506133220 | 62 | 157 | 0.0 | 0.0 | 0.00 | 0.00 | 0.00 | 84 | 1008.4 |
| 20260506133151 | 62 | 184 | 3.5 | 3.5 | 0.00 | 0.00 | 0.00 | 89 | 1007.2 |
| 20260506133003 | 62 | 163 | 0.0 | 0.0 | 0.00 | 0.00 | 0.00 | 83 | 1008.3 |
| 20260506132649 | 62 | 154 | 3.5 | 3.5 | 0.00 | 0.00 | 0.00 | 88 | 1006.8 |
| 20260506132209 | 62 | 150 | 0.0 | 0.0 | 0.00 | 0.00 | 0.00 | 83 | 1008.3 |
| 20260506132145 | 62 | 141 | 2.6 | 4.3 | 0.00 | 0.00 | 0.00 | 89 | 1006.9 |
| 20260506131710 | 62 | 169 | 0.0 | 0.0 | 0.00 | 0.00 | 0.00 | 84 | 1008.3 |
| 20260506131643 | 62 | 146 | 1.7 | 2.6 | 0.00 | 0.00 | 0.00 | 89 | 1007.1 |
| 20260506131210 | 62 | 167 | 0.0 | 0.0 | 0.00 | 0.00 | 0.00 | 83 | 1008.4 |
| 20260506131139 | 62 | 239 | 1.7 | 2.6 | 0.00 | 0.00 | 0.00 | 88 | 1007.0 |
| 20260506130719 | 62 | 184 | 0.0 | 0.0 | 0.00 | 0.00 | 0.00 | 83 | 1008.4 |
| 20260506130636 | 62 | 191 | 1.7 | 1.7 | 0.00 | 0.00 | 0.00 | 89 | 1006.9 |
| 20260506130210 | 62 | 176 | 0.0 | 0.0 | 0.00 | 0.00 | 0.00 | 83 | 1008.4 |
| 20260506130134 | 62 | 164 | 1.7 | 1.7 | 0.00 | 0.00 | 0.00 | 89 | 1007.3 |
| 20260506125657 | 62 | 183 | 0.0 | 0.0 | 0.00 | 0.00 | 0.00 | 83 | 1008.5 |
| 20260506125632 | 62 | 220 | 1.7 | 5.2 | 0.00 | 0.00 | 0.00 | 89 | 1007.1 |
| 20260506125437 | 62 | 165 | 0.0 | 0.0 | 0.00 | 0.00 | 0.00 | 82 | 1008.6 |
| 20260506125129 | 62 | 212 | 0.0 | 4.3 | 0.00 | 0.00 | 0.00 | 89 | 1007.4 |
| 20260506124655 | 63 | 178 | 0.0 | 0.0 | 0.00 | 0.00 | 0.00 | 82 | 1008.5 |
| 20260506124627 | 62 | 209 | 1.7 | 2.6 | 0.00 | 0.00 | 0.00 | 88 | 1007.5 |
| 20260506124156 | 63 | 181 | 0.0 | 0.0 | 0.00 | 0.00 | 0.00 | 80 | 1008.5 |
| 20260506124125 | 63 | 190 | 1.7 | 3.5 | 0.00 | 0.00 | 0.00 | 86 | 1007.2 |
| 20260506123942 | 63 | 198 | 0.0 | 0.0 | 0.00 | 0.00 | 0.00 | 78 | 1008.6 |
| 20260506123622 | 63 | 219 | 2.6 | 5.2 | 0.00 | 0.00 | 0.00 | 84 | 1007.4 |
| 20260506123153 | 63 | 197 | 0.0 | 0.0 | 0.00 | 0.00 | 0.00 | 78 | 1008.7 |
| 20260506123121 | 63 | 198 | 4.3 | 6.1 | 0.00 | 0.00 | 0.00 | 83 | 1007.3 |
| 20260506122651 | 63 | 171 | 0.0 | 0.0 | 0.00 | 0.00 | 0.00 | 78 | 1008.6 |
| 20260506122617 | 63 | 232 | 2.6 | 4.3 | 0.00 | 0.00 | 0.00 | 84 | 1007.0 |
| 20260506122152 | 63 | 175 | 0.0 | 0.0 | 0.00 | 0.00 | 0.00 | 78 | 1008.4 |
| 20260506122115 | 63 | 245 | 3.5 | 7.8 | 0.00 | 0.00 | 0.00 | 83 | 1007.1 |
| 20260506121652 | 63 | 172 | 0.0 | 0.0 | 0.00 | 0.00 | 0.00 | 79 | 1008.3 |
| 20260506121612 | 63 | 176 | 2.6 | 4.3 | 0.00 | 0.00 | 0.00 | 84 | 1007.0 |
| 20260506121152 | 63 | 186 | 0.0 | 0.0 | 0.00 | 0.00 | 0.00 | 79 | 1008.3 |
| 20260506121108 | 63 | 193 | 2.6 | 3.5 | 0.00 | 0.00 | 0.00 | 84 | 1006.9 |
| 20260506120633 | 63 | 196 | 0.0 | 0.0 | 0.00 | 0.00 | 0.00 | 79 | 1008.4 |
| 20260506120606 | 63 | 189 | 2.6 | 6.1 | 0.00 | 0.00 | 0.00 | 84 | 1007.0 |
| 20260506120421 | 63 | 169 | 0.0 | 0.0 | 0.00 | 0.00 | 0.00 | 79 | 1008.2 |
| 20260506120103 | 63 | 172 | 2.6 | 4.3 | 0.00 | 0.00 | 0.00 | 84 | 1006.8 |
| 20260506115633 | 63 | 205 | 0.0 | 0.0 | 0.00 | 0.00 | 0.00 | 79 | 1008.1 |
| 20260506115602 | 63 | 137 | 4.3 | 4.3 | 0.00 | 0.00 | 0.00 | 84 | 1007.0 |
| 20260506115133 | 63 | 156 | 0.0 | 0.0 | 0.00 | 0.00 | 0.00 | 79 | 1008.2 |
| 20260506115059 | 63 | 168 | 4.3 | 6.1 | 0.00 | 0.00 | 0.00 | 84 | 1006.9 |
| 20260506114633 | 63 | 137 | 0.0 | 0.0 | 0.00 | 0.00 | 0.00 | 79 | 1008.0 |
| 20260506114556 | 63 | 197 | 1.7 | 6.1 | 0.00 | 0.00 | 0.00 | 84 | 1007.0 |
| 20260506114421 | 63 | 200 | 0.0 | 0.0 | 0.00 | 0.00 | 0.00 | 79 | 1008.0 |
| 20260506114055 | 63 | 223 | 3.5 | 7.8 | 0.00 | 0.00 | 0.00 | 84 | 1006.5 |
| 20260506113620 | 63 | 163 | 0.0 | 0.0 | 0.00 | 0.00 | 0.00 | 79 | 1008.0 |
| 20260506113552 | 63 | 210 | 3.5 | 4.3 | 0.00 | 0.00 | 0.00 | 85 | 1006.8 |
| 20260506113105 | 63 | 198 | 0.0 | 0.0 | 0.00 | 0.00 | 0.00 | 79 | 1008.0 |
| 20260506113049 | 63 | 190 | 1.7 | 3.5 | 0.00 | 0.00 | 0.00 | 84 | 1006.5 |
| 20260506112557 | 63 | 182 | 0.0 | 0.0 | 0.00 | 0.00 | 0.00 | 79 | 1007.9 |
| 20260506112546 | 63 | 182 | 3.5 | 6.1 | 0.00 | 0.00 | 0.00 | 84 | 1006.7 |
| 20260506112343 | 63 | 185 | 0.0 | 0.0 | 0.00 | 0.00 | 0.00 | 79 | 1008.0 |
| 20260506112043 | 63 | 220 | 2.6 | 7.0 | 0.00 | 0.00 | 0.00 | 84 | 1006.4 |
| 20260506111554 | 63 | 168 | 0.0 | 0.0 | 0.00 | 0.00 | 0.00 | 79 | 1007.9 |
| 20260506111541 | 63 | 188 | 2.6 | 4.3 | 0.00 | 0.00 | 0.00 | 85 | 1006.5 |
| 20260506111053 | 63 | 155 | 0.0 | 0.0 | 0.00 | 0.00 | 0.00 | 79 | 1007.9 |
| 20260506111038 | 63 | 187 | 2.6 | 5.2 | 0.00 | 0.00 | 0.00 | 85 | 1006.5 |
| 20260506110554 | 63 | 163 | 0.0 | 0.0 | 0.00 | 0.00 | 0.00 | 79 | 1007.9 |
| 20260506110536 | 63 | 180 | 3.5 | 4.3 | 0.00 | 0.00 | 0.00 | 84 | 1006.7 |
| 20260506110107 | 62 | 137 | 0.0 | 0.0 | 0.00 | 0.00 | 0.00 | 79 | 1007.8 |
| 20260506110033 | 63 | 157 | 3.5 | 5.2 | 0.00 | 0.00 | 0.00 | 85 | 1006.4 |
| 20260506105552 | 62 | 168 | 0.0 | 0.0 | 0.00 | 0.00 | 0.00 | 80 | 1007.8 |
| 20260506105529 | 62 | 159 | 4.3 | 5.2 | 0.00 | 0.00 | 0.00 | 85 | 1006.7 |
| 20260506105051 | 62 | 161 | 0.0 | 0.0 | 0.00 | 0.00 | 0.00 | 79 | 1007.9 |
| 20260506105026 | 63 | 182 | 2.6 | 4.3 | 0.00 | 0.00 | 0.00 | 85 | 1006.4 |
| 20260506104538 | 62 | 159 | 0.0 | 0.0 | 0.00 | 0.00 | 0.00 | 79 | 1007.8 |
| 20260506104524 | 63 | 163 | 1.7 | 6.1 | 0.00 | 0.00 | 0.00 | 85 | 1006.1 |
| 20260506104023 | 63 | 145 | 0.0 | 0.0 | 0.00 | 0.00 | 0.00 | 79 | 1007.8 |
| 20260506103520 | 62 | 130 | 0.0 | 0.0 | 0.00 | 0.00 | 0.00 | 79 | 1007.7 |
| 20260506103309 | 62 | 149 | 0.0 | 0.0 | 0.00 | 0.00 | 0.00 | 79 | 1007.8 |
| 20260506103015 | 63 | 161 | 3.5 | 4.3 | 0.00 | 0.00 | 0.00 | 85 | 1006.5 |
| 20260506102521 | 63 | 184 | 0.0 | 0.0 | 0.00 | 0.00 | 0.00 | 79 | 1007.8 |
| 20260506102514 | 62 | 68 | 1.7 | 6.1 | 0.00 | 0.00 | 0.00 | 85 | 1006.1 |
| 20260506102019 | 63 | 169 | 0.0 | 0.0 | 0.00 | 0.00 | 0.00 | 79 | 1007.7 |
| 20260506102011 | 62 | 148 | 2.6 | 3.5 | 0.00 | 0.00 | 0.00 | 85 | 1006.5 |
| 20260506101521 | 63 | 84 | 0.0 | 0.0 | 0.00 | 0.00 | 0.00 | 79 | 1007.7 |
| 20260506101507 | 63 | 187 | 2.6 | 3.5 | 0.00 | 0.00 | 0.00 | 85 | 1006.4 |
| 20260506101017 | 63 | 148 | 0.0 | 0.0 | 0.00 | 0.00 | 0.00 | 79 | 1007.7 |
| 20260506101005 | 63 | 176 | 3.5 | 3.5 | 0.00 | 0.00 | 0.00 | 85 | 1006.3 |
| 20260506100517 | 63 | 157 | 0.0 | 0.0 | 0.00 | 0.00 | 0.00 | 79 | 1007.7 |
| 20260506100503 | 63 | 172 | 1.7 | 4.3 | 0.00 | 0.00 | 0.00 | 84 | 1006.3 |
| 20260506100008 | 63 | 255 | 0.0 | 0.0 | 0.00 | 0.00 | 0.00 | 79 | 1007.7 |
| 20260506100001 | 63 | 196 | 1.7 | 4.3 | 0.00 | 0.00 | 0.00 | 84 | 1006.2 |
| 20260506095506 | 63 | 171 | 0.9 | 4.3 | 0.00 | 0.00 | 0.00 | 78 | 1007.7 |
| 20260506095459 | 63 | 176 | 3.5 | 3.5 | 0.00 | 0.00 | 0.00 | 84 | 1006.4 |
| 20260506095008 | 63 | 123 | 1.7 | 4.3 | 0.00 | 0.00 | 0.00 | 78 | 1007.6 |
| 20260506094955 | 63 | 137 | 3.5 | 4.3 | 0.00 | 0.00 | 0.00 | 84 | 1006.1 |
| 20260506094506 | 63 | 174 | 1.7 | 4.3 | 0.00 | 0.00 | 0.00 | 78 | 1007.7 |
| 20260506094453 | 63 | 209 | 0.0 | 4.3 | 0.00 | 0.00 | 0.00 | 84 | 1006.3 |
| 20260506094008 | 63 | 143 | 2.6 | 7.0 | 0.00 | 0.00 | 0.00 | 78 | 1007.7 |
| 20260506093950 | 63 | 140 | 2.6 | 4.3 | 0.00 | 0.00 | 0.00 | 84 | 1006.3 |
| 20260506093504 | 64 | 150 | 2.6 | 7.0 | 0.00 | 0.00 | 0.00 | 77 | 1007.7 |
| 20260506093449 | 63 | 186 | 3.5 | 5.2 | 0.00 | 0.00 | 0.00 | 83 | 1006.3 |
| 20260506093005 | 64 | 154 | 2.6 | 7.0 | 0.00 | 0.00 | 0.00 | 77 | 1007.8 |
| 20260506092946 | 64 | 174 | 0.9 | 4.3 | 0.00 | 0.00 | 0.00 | 83 | 1006.4 |
| 20260506092505 | 64 | 130 | 3.5 | 7.0 | 0.00 | 0.00 | 0.00 | 76 | 1007.8 |
| 20260506092444 | 64 | 153 | 5.2 | 5.2 | 0.00 | 0.00 | 0.00 | 82 | 1006.3 |
| 20260506092247 | 64 | 129 | 2.6 | 7.0 | 0.00 | 0.00 | 0.00 | 76 | 1007.8 |
| 20260506091940 | 64 | 132 | 3.5 | 5.2 | 0.00 | 0.00 | 0.00 | 82 | 1006.5 |
| 20260506091454 | 64 | 155 | 2.6 | 7.0 | 0.00 | 0.00 | 0.00 | 76 | 1007.9 |
| 20260506091438 | 64 | 152 | 4.3 | 5.2 | 0.00 | 0.00 | 0.00 | 82 | 1006.5 |
| 20260506091235 | 64 | 163 | 2.6 | 7.0 | 0.00 | 0.00 | 0.00 | 75 | 1007.9 |
| 20260506090936 | 64 | 171 | 2.6 | 4.3 | 0.00 | 0.00 | 0.00 | 81 | 1006.5 |
| 20260506090452 | 64 | 136 | 1.7 | 6.1 | 0.00 | 0.00 | 0.00 | 75 | 1007.9 |
| 20260506090433 | 64 | 180 | 2.6 | 2.6 | 0.00 | 0.00 | 0.00 | 81 | 1006.8 |
| 20260506090241 | 64 | 180 | 1.7 | 6.1 | 0.00 | 0.00 | 0.00 | 75 | 1007.8 |
| 20260506085929 | 64 | 213 | 1.7 | 4.3 | 0.00 | 0.00 | 0.00 | 81 | 1006.5 |
| 20260506085453 | 65 | 158 | 1.7 | 4.3 | 0.00 | 0.00 | 0.00 | 75 | 1007.9 |
| 20260506085426 | 64 | 180 | 1.7 | 2.6 | 0.00 | 0.00 | 0.00 | 81 | 1006.8 |
| 20260506084953 | 65 | 157 | 2.6 | 6.1 | 0.00 | 0.00 | 0.00 | 74 | 1007.9 |
| 20260506084922 | 65 | 172 | 2.6 | 4.3 | 0.00 | 0.00 | 0.00 | 80 | 1006.5 |
| 20260506084454 | 65 | 156 | 2.6 | 6.1 | 0.00 | 0.00 | 0.00 | 74 | 1007.8 |
| 20260506084420 | 65 | 170 | 1.7 | 4.3 | 0.00 | 0.00 | 0.00 | 80 | 1006.8 |
| 20260506083954 | 65 | 158 | 1.7 | 6.1 | 0.00 | 0.00 | 0.00 | 74 | 1007.9 |
| 20260506083915 | 65 | 186 | 2.6 | 4.3 | 0.00 | 0.00 | 0.00 | 79 | 1006.5 |
| 20260506083454 | 65 | 169 | 2.6 | 5.2 | 0.00 | 0.00 | 0.00 | 74 | 1007.9 |
| 20260506083413 | 65 | 180 | 4.3 | 4.3 | 0.00 | 0.00 | 0.00 | 79 | 1006.8 |
| 20260506082951 | 65 | 167 | 2.6 | 5.2 | 0.00 | 0.00 | 0.00 | 74 | 1007.9 |
| 20260506082911 | 65 | 166 | 1.7 | 2.6 | 0.00 | 0.00 | 0.00 | 79 | 1006.8 |
| 20260506082451 | 65 | 207 | 2.6 | 5.2 | 0.00 | 0.00 | 0.00 | 73 | 1007.9 |
| 20260506082408 | 65 | 209 | 0.9 | 5.2 | 0.00 | 0.00 | 0.00 | 78 | 1006.4 |
| 20260506081951 | 65 | 74 | 2.6 | 6.1 | 0.00 | 0.00 | 0.00 | 73 | 1007.9 |
| 20260506081903 | 65 | 199 | 1.7 | 4.3 | 0.00 | 0.00 | 0.00 | 78 | 1006.7 |
| 20260506081738 | 65 | 132 | 2.6 | 6.1 | 0.00 | 0.00 | 0.00 | 73 | 1007.9 |
| 20260506081402 | 65 | 126 | 2.6 | 5.2 | 0.00 | 0.00 | 0.00 | 78 | 1006.5 |
| 20260506080951 | 65 | 162 | 2.6 | 4.3 | 0.00 | 0.00 | 0.00 | 72 | 1008.0 |
| 20260506080858 | 65 | 180 | 1.7 | 2.6 | 0.00 | 0.00 | 0.00 | 78 | 1006.7 |
| 20260506080450 | 65 | 153 | 1.7 | 5.2 | 0.00 | 0.00 | 0.00 | 72 | 1007.9 |
| 20260506080355 | 65 | 143 | 3.5 | 5.2 | 0.00 | 0.00 | 0.00 | 77 | 1006.8 |
| 20260506073452 | 66 | 180 | 2.6 | 7.8 | 0.00 | 0.00 | 0.00 | 70 | 1008.0 |
| 20260506073339 | 66 | 208 | 3.5 | 4.3 | 0.00 | 0.00 | 0.00 | 75 | 1006.5 |
| 20260506072939 | 66 | 143 | 2.6 | 5.2 | 0.00 | 0.00 | 0.00 | 70 | 1008.1 |
| 20260506072836 | 66 | 114 | 2.6 | 3.5 | 0.00 | 0.00 | 0.00 | 75 | 1007.0 |
| 20260506072439 | 66 | 146 | 2.6 | 5.2 | 0.00 | 0.00 | 0.00 | 70 | 1008.1 |
| 20260506072334 | 66 | 237 | 1.7 | 3.5 | 0.00 | 0.00 | 0.00 | 75 | 1007.1 |
| 20260506071939 | 65 | 164 | 1.7 | 5.2 | 0.00 | 0.00 | 0.00 | 71 | 1008.2 |
| 20260506071831 | 66 | 180 | 1.7 | 4.3 | 0.00 | 0.00 | 0.00 | 75 | 1007.0 |
| 20260506071438 | 65 | 146 | 1.7 | 5.2 | 0.00 | 0.00 | 0.00 | 71 | 1008.3 |
| 20260506071329 | 66 | 133 | 2.6 | 4.3 | 0.00 | 0.00 | 0.00 | 75 | 1007.0 |
| 20260506070938 | 65 | 140 | 1.7 | 4.3 | 0.00 | 0.00 | 0.00 | 70 | 1008.3 |
| 20260506070826 | 66 | 209 | 0.9 | 3.5 | 0.00 | 0.00 | 0.00 | 75 | 1007.0 |
| 20260506070722 | 65 | 167 | 1.7 | 4.3 | 0.00 | 0.00 | 0.00 | 70 | 1008.3 |
| 20260506070323 | 66 | 180 | 0.9 | 3.5 | 0.00 | 0.00 | 0.00 | 74 | 1007.3 |
| 20260506062432 | 66 | 113 | 0.9 | 3.5 | 0.00 | 0.00 | 0.00 | 68 | 1008.7 |
| 20260506062300 | 66 | 188 | 0.0 | 3.5 | 0.00 | 0.00 | 0.00 | 72 | 1007.4 |
| 20260506061928 | 66 | 157 | 0.9 | 5.2 | 0.00 | 0.00 | 0.00 | 67 | 1008.8 |
| 20260506061756 | 66 | 151 | 1.7 | 2.6 | 0.00 | 0.00 | 0.00 | 72 | 1007.6 |
| 20260506061427 | 66 | 126 | 0.9 | 5.2 | 0.00 | 0.00 | 0.00 | 67 | 1008.8 |
| 20260506061253 | 66 | 129 | 2.6 | 4.3 | 0.00 | 0.00 | 0.00 | 72 | 1007.8 |
| 20260506060919 | 66 | 155 | 1.7 | 3.5 | 0.00 | 0.00 | 0.00 | 67 | 1008.8 |
| 20260506060751 | 66 | 135 | 2.6 | 2.6 | 0.00 | 0.00 | 0.00 | 71 | 1007.4 |
| 20260506060419 | 66 | 159 | 1.7 | 3.5 | 0.00 | 0.00 | 0.00 | 67 | 1008.9 |
| 20260506060249 | 66 | 165 | 0.0 | 4.3 | 0.00 | 0.00 | 0.00 | 71 | 1007.8 |
| 20260506051355 | 67 | 126 | 1.7 | 5.2 | 0.00 | 0.00 | 0.00 | 64 | 1009.1 |
| 20260506051220 | 66 | 157 | 2.6 | 3.5 | 0.00 | 0.00 | 0.00 | 68 | 1007.9 |
| 20260506050856 | 66 | 143 | 1.7 | 4.3 | 0.00 | 0.00 | 0.00 | 64 | 1009.1 |
| 20260506050719 | 67 | 160 | 2.6 | 2.6 | 0.00 | 0.00 | 0.00 | 68 | 1007.8 |
| 20260506050434 | 67 | 142 | 1.7 | 3.5 | 0.00 | 0.00 | 0.00 | 63 | 1009.2 |
| 20260506050421 | 67 | 144 | 1.7 | 2.6 | 0.00 | 0.00 | 0.00 | 64 | 1009.2 |
| 20260506050215 | 67 | 151 | 2.6 | 3.5 | 0.00 | 0.00 | 0.00 | 68 | 1008.0 |
| 20260506045124 | 67 | 152 | 1.7 | 5.2 | 0.00 | 0.00 | 0.00 | 62 | 1009.2 |
| 20260506044706 | 67 | 166 | 0.0 | 3.5 | 0.00 | 0.00 | 0.00 | 66 | 1008.1 |
| 20260506044341 | 67 | 128 | 1.7 | 3.5 | 0.00 | 0.00 | 0.00 | 62 | 1009.2 |
| 20260506044203 | 67 | 157 | 2.6 | 4.3 | 0.00 | 0.00 | 0.00 | 66 | 1008.0 |
| 20260506043839 | 67 | 146 | 1.7 | 4.3 | 0.00 | 0.00 | 0.00 | 62 | 1009.2 |
| 20260506043701 | 67 | 178 | 3.5 | 3.5 | 0.00 | 0.00 | 0.00 | 66 | 1008.0 |
| 20260506043338 | 67 | 151 | 1.7 | 4.3 | 0.00 | 0.00 | 0.00 | 62 | 1009.2 |
| 20260506043158 | 67 | 155 | 2.6 | 3.5 | 0.00 | 0.00 | 0.00 | 66 | 1008.3 |
| 20260506042839 | 67 | 146 | 1.7 | 4.3 | 0.00 | 0.00 | 0.00 | 62 | 1009.2 |
| 20260506042657 | 67 | 176 | 1.7 | 2.6 | 0.00 | 0.00 | 0.00 | 66 | 1007.9 |
| 20260506042629 | 67 | 147 | 1.7 | 4.3 | 0.00 | 0.00 | 0.00 | 62 | 1009.3 |
| 20260506042155 | 67 | 169 | 1.7 | 2.6 | 0.00 | 0.00 | 0.00 | 65 | 1007.9 |
| 20260506042123 | 67 | 148 | 2.6 | 5.2 | 0.00 | 0.00 | 0.00 | 61 | 1009.3 |
| 20260506041653 | 67 | 178 | 3.5 | 3.5 | 0.00 | 0.00 | 0.00 | 65 | 1008.2 |
| 20260506041335 | 67 | 160 | 2.6 | 7.0 | 0.00 | 0.00 | 0.00 | 61 | 1009.3 |
| 20260506041150 | 68 | 180 | 2.6 | 3.5 | 0.00 | 0.00 | 0.00 | 65 | 1008.3 |
| 20260506041121 | 67 | 166 | 2.6 | 5.2 | 0.00 | 0.00 | 0.00 | 61 | 1009.2 |
| 20260506040647 | 67 | 161 | 2.6 | 2.6 | 0.00 | 0.00 | 0.00 | 65 | 1007.9 |
| 20260506040416 | 67 | 167 | 1.7 | 4.3 | 0.00 | 0.00 | 0.00 | 61 | 1009.2 |
| 20260506040401 | 67 | 171 | 2.6 | 5.2 | 0.00 | 0.00 | 0.00 | 61 | 1009.2 |
| 20260506040144 | 67 | 170 | 2.6 | 2.6 | 0.00 | 0.00 | 0.00 | 65 | 1008.3 |
| 20260506035641 | 67 | 163 | 2.6 | 4.3 | 0.00 | 0.00 | 0.00 | 65 | 1007.9 |
| 20260506035328 | 67 | 146 | 1.7 | 4.3 | 0.00 | 0.00 | 0.00 | 61 | 1009.2 |
| 20260506035137 | 67 | 168 | 1.7 | 2.6 | 0.00 | 0.00 | 0.00 | 64 | 1008.2 |
| 20260506034912 | 67 | 166 | 1.7 | 4.3 | 0.00 | 0.00 | 0.00 | 61 | 1009.2 |
| 20260506034859 | 67 | 157 | 1.7 | 4.3 | 0.00 | 0.00 | 0.00 | 61 | 1009.2 |
| 20260506034635 | 67 | 146 | 1.7 | 2.6 | 0.00 | 0.00 | 0.00 | 65 | 1008.0 |
| 20260506034132 | 67 | 202 | 1.7 | 3.5 | 0.00 | 0.00 | 0.00 | 65 | 1008.1 |
| 20260506034111 | 67 | 149 | 1.7 | 4.3 | 0.00 | 0.00 | 0.00 | 61 | 1009.1 |
| 20260506033629 | 67 | 191 | 1.7 | 2.6 | 0.00 | 0.00 | 0.00 | 65 | 1007.7 |
| 20260506033324 | 67 | 148 | 1.7 | 3.5 | 0.00 | 0.00 | 0.00 | 61 | 1009.2 |
| 20260506033126 | 67 | 169 | 1.7 | 2.6 | 0.00 | 0.00 | 0.00 | 65 | 1008.0 |
| 20260506032822 | 67 | 160 | 1.7 | 4.3 | 0.00 | 0.00 | 0.00 | 61 | 1009.2 |
| 20260506032623 | 67 | 157 | 0.0 | 2.6 | 0.00 | 0.00 | 0.00 | 65 | 1008.0 |
| 20260506032322 | 67 | 161 | 1.7 | 4.3 | 0.00 | 0.00 | 0.00 | 61 | 1009.1 |
| 20260506032120 | 67 | 172 | 1.7 | 3.5 | 0.00 | 0.00 | 0.00 | 64 | 1008.1 |
| 20260506031823 | 67 | 155 | 1.7 | 3.5 | 0.00 | 0.00 | 0.00 | 60 | 1009.1 |
| 20260506031617 | 67 | 180 | 2.6 | 2.6 | 0.00 | 0.00 | 0.00 | 65 | 1008.0 |
| 20260506031323 | 67 | 129 | 1.7 | 3.5 | 0.00 | 0.00 | 0.00 | 60 | 1009.1 |
| 20260506031114 | 67 | 133 | 2.6 | 3.5 | 0.00 | 0.00 | 0.00 | 64 | 1008.0 |
| 20260506030824 | 67 | 141 | 1.7 | 4.3 | 0.00 | 0.00 | 0.00 | 60 | 1009.1 |
| 20260506030612 | 68 | 180 | 1.7 | 4.3 | 0.00 | 0.00 | 0.00 | 64 | 1008.0 |
| 20260506030314 | 67 | 140 | 1.7 | 4.3 | 0.00 | 0.00 | 0.00 | 59 | 1009.1 |
| 20260506030109 | 67 | 140 | 2.6 | 4.3 | 0.00 | 0.00 | 0.00 | 63 | 1008.0 |
| 20260506025809 | 68 | 156 | 1.7 | 3.5 | 0.00 | 0.00 | 0.00 | 59 | 1009.1 |
| 20260506025606 | 68 | 176 | 1.7 | 2.6 | 0.00 | 0.00 | 0.00 | 63 | 1008.0 |
| 20260506025308 | 68 | 126 | 1.7 | 4.3 | 0.00 | 0.00 | 0.00 | 59 | 1009.1 |
| 20260506025102 | 68 | 147 | 2.6 | 2.6 | 0.00 | 0.00 | 0.00 | 62 | 1008.0 |
| 20260506024810 | 68 | 138 | 1.7 | 5.2 | 0.00 | 0.00 | 0.00 | 58 | 1009.1 |
| 20260506024600 | 68 | 135 | 2.6 | 2.6 | 0.00 | 0.00 | 0.00 | 62 | 1008.0 |
| 20260506024308 | 68 | 145 | 1.7 | 5.2 | 0.00 | 0.00 | 0.00 | 58 | 1009.1 |
| 20260506024056 | 68 | 170 | 3.5 | 3.5 | 0.00 | 0.00 | 0.00 | 62 | 1008.0 |
| 20260506023809 | 68 | 134 | 1.7 | 4.3 | 0.00 | 0.00 | 0.00 | 57 | 1009.1 |
| 20260506023551 | 68 | 143 | 2.6 | 3.5 | 0.00 | 0.00 | 0.00 | 61 | 1007.9 |
| 20260506023308 | 68 | 132 | 1.7 | 4.3 | 0.00 | 0.00 | 0.00 | 57 | 1009.1 |
| 20260506023049 | 68 | 196 | 1.7 | 3.5 | 0.00 | 0.00 | 0.00 | 61 | 1007.8 |
| 20260506022819 | 68 | 155 | 1.7 | 3.5 | 0.00 | 0.00 | 0.00 | 57 | 1009.2 |
| 20260506022547 | 69 | 138 | 2.6 | 3.5 | 0.00 | 0.00 | 0.00 | 61 | 1008.2 |
| 20260506022305 | 68 | 150 | 1.7 | 4.3 | 0.00 | 0.00 | 0.00 | 57 | 1009.2 |
| 20260506022044 | 68 | 151 | 2.6 | 2.6 | 0.00 | 0.00 | 0.00 | 61 | 1008.2 |
| 20260506022036 | 68 | 136 | 1.7 | 4.3 | 0.00 | 0.00 | 0.00 | 57 | 1009.2 |
| 20260506021542 | 68 | 123 | 1.7 | 2.6 | 0.00 | 0.00 | 0.00 | 61 | 1008.2 |
| 20260506021249 | 69 | 144 | 1.7 | 3.5 | 0.00 | 0.00 | 0.00 | 57 | 1009.2 |
| 20260506021039 | 69 | 166 | 0.9 | 1.7 | 0.00 | 0.00 | 0.00 | 60 | 1008.3 |
| 20260506020746 | 69 | 123 | 1.7 | 4.3 | 0.00 | 0.00 | 0.00 | 57 | 1009.2 |
| 20260506020536 | 69 | 169 | 1.7 | 2.6 | 0.00 | 0.00 | 0.00 | 60 | 1008.0 |
| 20260506020245 | 69 | 133 | 1.7 | 4.3 | 0.00 | 0.00 | 0.00 | 56 | 1009.1 |
| 20260506020033 | 69 | 164 | 1.7 | 2.6 | 0.00 | 0.00 | 0.00 | 60 | 1007.9 |
| 20260506015747 | 69 | 148 | 0.9 | 4.3 | 0.00 | 0.00 | 0.00 | 56 | 1009.1 |
| 20260506015531 | 69 | 166 | 3.5 | 3.5 | 0.00 | 0.00 | 0.00 | 60 | 1008.3 |
| 20260506015257 | 69 | 148 | 0.9 | 4.3 | 0.00 | 0.00 | 0.00 | 55 | 1009.1 |
| 20260506015027 | 69 | 162 | 0.9 | 2.6 | 0.00 | 0.00 | 0.00 | 59 | 1008.0 |
| 20260506014745 | 69 | 148 | 1.7 | 4.3 | 0.00 | 0.00 | 0.00 | 55 | 1009.0 |
| 20260506014525 | 69 | 168 | 0.9 | 3.5 | 0.00 | 0.00 | 0.00 | 59 | 1007.9 |
| 20260506014245 | 69 | 148 | 1.7 | 5.2 | 0.00 | 0.00 | 0.00 | 55 | 1008.9 |
| 20260506014021 | 69 | 162 | 2.6 | 2.6 | 0.00 | 0.00 | 0.00 | 58 | 1007.8 |
| 20260506013738 | 69 | 133 | 1.7 | 5.2 | 0.00 | 0.00 | 0.00 | 56 | 1008.8 |
| 20260506013529 | 69 | 136 | 0.9 | 2.6 | 0.00 | 0.00 | 0.00 | 54 | 1008.9 |
| 20260506013519 | 69 | 107 | 1.7 | 2.6 | 0.00 | 0.00 | 0.00 | 58 | 1007.8 |
| 20260506013015 | 69 | 194 | 0.9 | 3.5 | 0.00 | 0.00 | 0.00 | 58 | 1008.0 |
| 20260506012739 | 70 | 134 | 0.9 | 2.6 | 0.00 | 0.00 | 0.00 | 54 | 1008.9 |
| 20260506012511 | 69 | 105 | 0.0 | 2.6 | 0.00 | 0.00 | 0.00 | 58 | 1007.8 |
| 20260506012235 | 70 | 134 | 0.9 | 2.6 | 0.00 | 0.00 | 0.00 | 53 | 1008.8 |
| 20260506012009 | 70 | 148 | 2.6 | 2.6 | 0.00 | 0.00 | 0.00 | 56 | 1007.7 |
| 20260506011733 | 70 | 134 | 0.9 | 3.5 | 0.00 | 0.00 | 0.00 | 52 | 1008.7 |
| 20260506011506 | 70 | 168 | 1.7 | 1.7 | 0.00 | 0.00 | 0.00 | 56 | 1007.6 |
| 20260506011233 | 70 | 134 | 1.7 | 4.3 | 0.00 | 0.00 | 0.00 | 53 | 1008.6 |
| 20260506011021 | 70 | 129 | 1.7 | 4.3 | 0.00 | 0.00 | 0.00 | 52 | 1008.6 |
| 20260506011002 | 70 | 177 | 1.7 | 3.5 | 0.00 | 0.00 | 0.00 | 55 | 1007.5 |
| 20260506010502 | 70 | 129 | 1.7 | 3.5 | 0.00 | 0.00 | 0.00 | 56 | 1007.4 |
| 20260506010233 | 70 | 117 | 1.7 | 2.6 | 0.00 | 0.00 | 0.00 | 52 | 1008.5 |
| 20260506005957 | 71 | 144 | 0.0 | 3.5 | 0.00 | 0.00 | 0.00 | 56 | 1007.4 |
| 20260506005733 | 71 | 117 | 1.7 | 3.5 | 0.00 | 0.00 | 0.00 | 51 | 1008.5 |
| 20260506005455 | 71 | 173 | 0.0 | 2.6 | 0.00 | 0.00 | 0.00 | 54 | 1007.7 |
| 20260506005233 | 71 | 117 | 0.9 | 3.5 | 0.00 | 0.00 | 0.00 | 51 | 1008.5 |
| 20260506004950 | 71 | 180 | 0.9 | 2.6 | 0.00 | 0.00 | 0.00 | 54 | 1007.3 |
| 20260506004732 | 71 | 151 | 0.9 | 2.6 | 0.00 | 0.00 | 0.00 | 50 | 1008.4 |
| 20260506004448 | 71 | 142 | 2.6 | 2.6 | 0.00 | 0.00 | 0.00 | 54 | 1007.5 |
| 20260506004233 | 71 | 151 | 1.7 | 4.3 | 0.00 | 0.00 | 0.00 | 50 | 1008.3 |
| 20260506003944 | 71 | 192 | 0.9 | 2.6 | 0.00 | 0.00 | 0.00 | 53 | 1007.5 |
| 20260506003731 | 71 | 148 | 1.7 | 4.3 | 0.00 | 0.00 | 0.00 | 49 | 1008.3 |
| 20260506003552 | 72 | 159 | 0.9 | 3.5 | 0.00 | 0.00 | 0.00 | 48 | 1008.3 |
| 20260506003548 | 72 | 157 | 0.9 | 4.3 | 0.00 | 0.00 | 0.00 | 48 | 1008.3 |
| 20260506003441 | 72 | 123 | 1.7 | 3.5 | 0.00 | 0.00 | 0.00 | 53 | 1007.2 |
| 20260506002937 | 72 | 141 | 2.6 | 2.6 | 0.00 | 0.00 | 0.00 | 52 | 1007.2 |
| 20260506002433 | 72 | 180 | 0.0 | 2.6 | 0.00 | 0.00 | 0.00 | 51 | 1006.9 |
| 20260506002221 | 72 | 170 | 1.7 | 4.3 | 0.00 | 0.00 | 0.00 | 48 | 1008.2 |
| 20260506002001 | 72 | 175 | 1.7 | 4.3 | 0.00 | 0.00 | 0.00 | 47 | 1008.2 |
| 20260506001929 | 73 | 168 | 0.9 | 2.6 | 0.00 | 0.00 | 0.00 | 51 | 1007.2 |
| 20260506001426 | 73 | 99 | 0.0 | 3.5 | 0.00 | 0.00 | 0.00 | 51 | 1007.2 |
| 20260506001221 | 72 | 159 | 1.7 | 4.3 | 0.00 | 0.00 | 0.00 | 47 | 1008.1 |
| 20260506001021 | 73 | 145 | 1.7 | 4.3 | 0.00 | 0.00 | 0.00 | 48 | 1008.2 |
| 20260506000923 | 73 | 209 | 0.9 | 2.6 | 0.00 | 0.00 | 0.00 | 50 | 1007.2 |
| 20260506000423 | 73 | 201 | 1.7 | 3.5 | 0.00 | 0.00 | 0.00 | 50 | 1007.1 |
| 20260506000219 | 73 | 131 | 1.7 | 3.5 | 0.00 | 0.00 | 0.00 | 47 | 1008.1 |
| 20260505235917 | 73 | 176 | 1.7 | 4.3 | 0.00 | 0.00 | 0.00 | 50 | 1007.0 |
| 20260505235720 | 73 | 165 | 1.7 | 3.5 | 0.00 | 0.00 | 0.00 | 47 | 1008.0 |
| 20260505235416 | 73 | 180 | 1.7 | 4.3 | 0.00 | 0.00 | 0.00 | 51 | 1006.9 |
| 20260505235213 | 73 | 134 | 1.7 | 4.3 | 0.00 | 0.00 | 0.00 | 47 | 1008.0 |
| 20260505234912 | 73 | 175 | 0.9 | 2.6 | 0.00 | 0.00 | 0.00 | 50 | 1007.0 |
| 20260505234712 | 74 | 140 | 1.7 | 4.3 | 0.00 | 0.00 | 0.00 | 47 | 1007.9 |
| 20260505234410 | 73 | 171 | 1.7 | 2.6 | 0.00 | 0.00 | 0.00 | 50 | 1006.8 |
| 20260505234213 | 74 | 161 | 1.7 | 5.2 | 0.00 | 0.00 | 0.00 | 46 | 1007.9 |
| 20260505233906 | 74 | 144 | 2.6 | 4.3 | 0.00 | 0.00 | 0.00 | 49 | 1006.8 |
| 20260505233710 | 74 | 176 | 2.6 | 5.2 | 0.00 | 0.00 | 0.00 | 45 | 1007.8 |
| 20260505233404 | 74 | 160 | 3.5 | 4.3 | 0.00 | 0.00 | 0.00 | 48 | 1006.8 |
| 20260505233211 | 74 | 161 | 1.7 | 4.3 | 0.00 | 0.00 | 0.00 | 45 | 1007.7 |
| 20260505232955 | 74 | 148 | 1.7 | 4.3 | 0.00 | 0.00 | 0.00 | 46 | 1007.8 |
| 20260505232901 | 74 | 173 | 2.6 | 2.6 | 0.00 | 0.00 | 0.00 | 48 | 1006.7 |
| 20260505232359 | 74 | 147 | 2.6 | 2.6 | 0.00 | 0.00 | 0.00 | 48 | 1006.9 |
| 20260505232158 | 74 | 147 | 1.7 | 4.3 | 0.00 | 0.00 | 0.00 | 45 | 1007.8 |
| 20260505231855 | 75 | 162 | 1.7 | 2.6 | 0.00 | 0.00 | 0.00 | 48 | 1006.8 |
| 20260505231658 | 75 | 138 | 1.7 | 5.2 | 0.00 | 0.00 | 0.00 | 45 | 1007.9 |
| 20260505231353 | 75 | 156 | 1.7 | 2.6 | 0.00 | 0.00 | 0.00 | 48 | 1006.9 |
| 20260505231159 | 75 | 165 | 1.7 | 5.2 | 0.00 | 0.00 | 0.00 | 44 | 1007.9 |
| 20260505230851 | 75 | 180 | 0.0 | 3.5 | 0.00 | 0.00 | 0.00 | 47 | 1006.8 |
| 20260505230710 | 75 | 108 | 2.6 | 6.1 | 0.00 | 0.00 | 0.00 | 44 | 1007.8 |
| 20260505230348 | 75 | 180 | 0.0 | 3.5 | 0.00 | 0.00 | 0.00 | 46 | 1006.8 |
| 20260505230158 | 75 | 150 | 2.6 | 7.8 | 0.00 | 0.00 | 0.00 | 43 | 1007.9 |
| 20260505225845 | 76 | 154 | 4.3 | 5.2 | 0.00 | 0.00 | 0.00 | 46 | 1006.9 |
| 20260505225700 | 76 | 138 | 3.5 | 7.8 | 0.00 | 0.00 | 0.00 | 43 | 1007.8 |
| 20260505225342 | 76 | 198 | 0.9 | 3.5 | 0.00 | 0.00 | 0.00 | 46 | 1006.7 |
| 20260505225159 | 76 | 143 | 3.5 | 7.8 | 0.00 | 0.00 | 0.00 | 43 | 1007.8 |
| 20260505224937 | 76 | 156 | 3.5 | 7.8 | 0.00 | 0.00 | 0.00 | 43 | 1007.8 |
| 20260505224837 | 76 | 178 | 2.6 | 5.2 | 0.00 | 0.00 | 0.00 | 45 | 1006.8 |
| 20260505224335 | 76 | 147 | 3.5 | 4.3 | 0.00 | 0.00 | 0.00 | 45 | 1006.9 |
| 20260505224157 | 76 | 168 | 3.5 | 6.1 | 0.00 | 0.00 | 0.00 | 43 | 1007.8 |
| 20260505223832 | 76 | 175 | 2.6 | 3.5 | 0.00 | 0.00 | 0.00 | 46 | 1006.5 |
| 20260505223658 | 76 | 143 | 3.5 | 7.0 | 0.00 | 0.00 | 0.00 | 42 | 1007.8 |
| 20260505223329 | 77 | 195 | 3.5 | 4.3 | 0.00 | 0.00 | 0.00 | 45 | 1006.9 |
| 20260505223156 | 76 | 160 | 3.5 | 7.8 | 0.00 | 0.00 | 0.00 | 42 | 1007.8 |
| 20260505222824 | 77 | 156 | 5.2 | 6.1 | 0.00 | 0.00 | 0.00 | 44 | 1006.5 |
| 20260505222644 | 77 | 148 | 1.7 | 7.8 | 0.00 | 0.00 | 0.00 | 41 | 1007.9 |
| 20260505222321 | 77 | 187 | 4.3 | 7.8 | 0.00 | 0.00 | 0.00 | 45 | 1006.9 |
| 20260505222143 | 77 | 137 | 0.0 | 1.7 | 0.00 | 0.00 | 0.00 | 43 | 1007.9 |
| 20260505221818 | 77 | 122 | 3.5 | 7.0 | 0.00 | 0.00 | 0.00 | 45 | 1006.8 |
| 20260505221644 | 77 | 108 | 0.0 | 0.0 | 0.00 | 0.00 | 0.00 | 43 | 1007.8 |
| 20260505221315 | 77 | 275 | 1.7 | 6.1 | 0.00 | 0.00 | 0.00 | 45 | 1006.8 |
| 20260505221145 | 77 | 157 | 0.0 | 0.0 | 0.00 | 0.00 | 0.00 | 42 | 1007.8 |
| 20260505220812 | 77 | 303 | 1.7 | 7.0 | 0.00 | 0.00 | 0.00 | 45 | 1007.0 |
| 20260505220645 | 77 | 144 | 0.9 | 7.0 | 0.00 | 0.00 | 0.00 | 43 | 1007.8 |
| 20260505220309 | 77 | 180 | 1.7 | 7.0 | 0.00 | 0.00 | 0.00 | 46 | 1006.8 |
| 20260505220145 | 77 | 139 | 2.6 | 7.8 | 0.00 | 0.00 | 0.00 | 43 | 1007.8 |
| 20260505215807 | 77 | 130 | 2.6 | 6.1 | 0.00 | 0.00 | 0.00 | 46 | 1006.9 |
| 20260505215630 | 77 | 137 | 3.5 | 8.7 | 0.00 | 0.00 | 0.00 | 44 | 1007.9 |
| 20260505215305 | 77 | 135 | 2.6 | 6.1 | 0.00 | 0.00 | 0.00 | 46 | 1006.8 |
| 20260505215129 | 77 | 137 | 3.5 | 8.7 | 0.00 | 0.00 | 0.00 | 42 | 1007.8 |
| 20260505214802 | 77 | 166 | 2.6 | 5.2 | 0.00 | 0.00 | 0.00 | 46 | 1006.8 |
| 20260505214627 | 77 | 147 | 3.5 | 6.1 | 0.00 | 0.00 | 0.00 | 41 | 1007.8 |
| 20260505214259 | 78 | 187 | 3.5 | 4.3 | 0.00 | 0.00 | 0.00 | 45 | 1006.9 |
| 20260505214128 | 78 | 150 | 3.5 | 7.8 | 0.00 | 0.00 | 0.00 | 42 | 1007.8 |
| 20260505213756 | 78 | 180 | 2.6 | 4.3 | 0.00 | 0.00 | 0.00 | 44 | 1006.7 |
| 20260505213626 | 77 | 178 | 4.3 | 8.7 | 0.00 | 0.00 | 0.00 | 41 | 1007.7 |
| 20260505213254 | 78 | 185 | 6.1 | 7.0 | 0.00 | 0.00 | 0.00 | 45 | 1006.5 |
| 20260505213127 | 77 | 148 | 4.3 | 8.7 | 0.00 | 0.00 | 0.00 | 42 | 1007.6 |
| 20260505212749 | 78 | 180 | 2.6 | 5.2 | 0.00 | 0.00 | 0.00 | 45 | 1006.5 |
| 20260505212627 | 77 | 155 | 4.3 | 8.7 | 0.00 | 0.00 | 0.00 | 42 | 1007.6 |
| 20260505212247 | 78 | 174 | 3.5 | 5.2 | 0.00 | 0.00 | 0.00 | 45 | 1007.0 |
| 20260505212117 | 78 | 153 | 4.3 | 9.6 | 0.00 | 0.00 | 0.00 | 41 | 1007.7 |